QBEE50-LTU-OC

Last updated on Wed Feb 27 2019 03:08:58 GMT+0000 (Coordinated Universal Time)

1 42708U 98067LR 19057.60728726 .12539676 12620-4 24972-3 0 9992 2 42708 51.6043 110.2979 0003995 293.2873 66.7735 16.46993420102181

Satellite not in orbit